"datetime","# probes","# resolvers","can_ipv6","can_ipv6_prbs","can_tcp","can_tcp_prbs","can_tcp6","can_tcp6_prbs","does_ecs","does_ecs_prbs","does_flagday","does_flagday_prbs","does_rov4","does_rov4_prbs","does_rov6","does_rov6_prbs","does_qnamemin","doesnt_qnamemin","does_qnamemin_prbs","doesnt_qnamemin_prbs","does_nxdomain","doesnt_nxdomain","does_nxdomain_prbs","doesnt_nxdomain_prbs","has_ta_19036","hasnt_ta_19036","has_ta_19036_prbs","hasnt_ta_19036_prbs","has_ta_20326","hasnt_ta_20326","has_ta_20326_prbs","hasnt_ta_20326_prbs","can_rsamd5","cannot_rsamd5","broken_rsamd5","can_rsamd5_prbs","cannot_rsamd5_prbs","broken_rsamd5_prbs","can_dsa","cannot_dsa","broken_dsa","can_dsa_prbs","cannot_dsa_prbs","broken_dsa_prbs","can_rsasha1","cannot_rsasha1","broken_rsasha1","can_rsasha1_prbs","cannot_rsasha1_prbs","broken_rsasha1_prbs","can_dsansec3","cannot_dsansec3","broken_dsansec3","can_dsansec3_prbs","cannot_dsansec3_prbs","broken_dsansec3_prbs","can_rsansec3","cannot_rsansec3","broken_rsansec3","can_rsansec3_prbs","cannot_rsansec3_prbs","broken_rsansec3_prbs","can_rsasha256","cannot_rsasha256","broken_rsasha256","can_rsasha256_prbs","cannot_rsasha256_prbs","broken_rsasha256_prbs","can_rsasha512","cannot_rsasha512","broken_rsasha512","can_rsasha512_prbs","cannot_rsasha512_prbs","broken_rsasha512_prbs","can_eccgost","cannot_eccgost","broken_eccgost","can_eccgost_prbs","cannot_eccgost_prbs","broken_eccgost_prbs","can_ecdsa256","cannot_ecdsa256","broken_ecdsa256","can_ecdsa256_prbs","cannot_ecdsa256_prbs","broken_ecdsa256_prbs","can_ecdsa384","cannot_ecdsa384","broken_ecdsa384","can_ecdsa384_prbs","cannot_ecdsa384_prbs","broken_ecdsa384_prbs","can_ed25519","cannot_ed25519","broken_ed25519","can_ed25519_prbs","cannot_ed25519_prbs","broken_ed25519_prbs","can_ed448","cannot_ed448","broken_ed448","can_ed448_prbs","cannot_ed448_prbs","broken_ed448_prbs","can_gost","cannot_gost","broken_gost","can_gost_prbs","cannot_gost_prbs","broken_gost_prbs","can_sha384","cannot_sha384","broken_sha384","can_sha384_prbs","cannot_sha384_prbs","broken_sha384_prbs","is_internal","is_forwarding","is_external","is_internal_prbs","is_forwarding_prbs","is_external_prbs"
2017-06-20T23:59:59Z,152,216,196,136,216,152,193,134,85,67,0,0,0,0,0,0,2,213,1,150,0,214,0,151,0,0,0,0,0,0,0,0,88,41,87,61,48,67,130,86,0,89,71,1,216,0,0,152,19,1,129,87,0,88,72,1,216,0,0,152,19,1,216,0,0,152,19,1,215,0,0,151,19,1,84,130,2,57,98,2,214,2,0,150,20,1,214,2,0,150,20,1,0,214,2,0,151,2,0,213,3,0,151,3,172,42,2,124,47,2,213,2,0,149,20,1,106,42,68,85,35,49
2017-06-21T23:59:59Z,156,220,199,139,218,156,195,136,90,70,0,0,0,0,0,0,2,218,1,155,0,218,0,155,0,0,0,0,0,0,0,0,86,45,89,60,52,69,131,89,0,90,74,1,219,1,0,155,21,1,132,88,0,91,73,1,220,0,0,156,20,1,220,0,0,156,20,1,220,0,0,156,20,1,84,134,2,58,101,2,217,3,0,153,22,1,217,3,0,153,22,1,0,218,2,0,155,2,0,218,2,0,155,2,173,45,2,126,50,2,217,2,1,153,21,2,109,43,68,89,37,49
2017-06-22T23:59:59Z,156,221,200,139,221,156,197,137,90,70,0,0,0,0,0,0,2,219,1,155,0,219,0,155,0,0,0,0,0,0,0,0,89,44,88,61,52,70,133,88,0,91,74,2,220,1,0,155,21,2,133,88,0,91,74,2,221,0,0,156,20,2,221,0,0,156,20,2,221,0,0,156,20,2,86,133,2,58,102,3,219,2,0,154,21,2,219,2,0,154,21,2,0,219,2,0,155,3,0,219,2,0,155,3,175,44,2,126,50,3,218,2,1,153,21,2,110,43,68,89,38,49
2017-06-23T23:59:59Z,155,220,199,138,220,155,195,135,90,70,0,0,0,0,0,0,2,218,1,154,0,218,1,154,0,0,0,0,0,0,0,0,88,45,87,61,52,67,133,87,0,91,73,0,219,1,0,154,21,0,132,88,0,90,73,1,220,0,0,155,20,1,220,0,0,155,20,1,220,0,0,155,20,1,85,133,2,58,100,2,217,3,0,152,22,1,217,3,0,152,22,1,0,218,2,0,154,2,0,218,2,0,154,2,173,45,2,125,50,2,218,2,0,153,21,1,108,44,68,88,37,48
2017-06-24T23:59:59Z,153,217,198,138,214,152,194,136,87,69,0,0,0,0,0,0,3,214,2,152,0,215,0,152,0,0,0,0,0,0,0,0,84,45,88,58,51,67,129,88,0,88,72,0,216,1,0,152,20,0,129,88,0,88,72,0,217,0,0,153,19,0,216,1,0,152,20,0,216,1,0,152,20,0,81,134,2,55,101,1,215,2,0,151,21,0,215,2,0,151,21,0,0,215,2,0,152,1,0,215,2,0,152,1,170,45,2,123,50,1,215,2,0,151,21,0,104,46,67,84,40,47
2017-06-25T23:59:59Z,152,217,198,137,217,152,195,135,88,68,0,0,0,0,0,0,2,215,1,151,0,215,0,151,0,0,0,0,0,0,0,0,85,44,88,59,50,66,130,87,0,89,70,0,217,0,0,152,19,0,129,88,0,88,72,0,217,0,0,152,19,0,217,0,0,152,19,0,217,0,0,152,19,0,82,133,2,56,100,1,216,1,0,151,20,0,216,1,0,151,20,0,0,215,2,0,151,1,0,215,2,0,151,1,171,44,2,123,49,1,216,1,0,151,20,0,105,45,67,85,37,47
2017-06-26T23:59:59Z,154,219,200,139,218,153,196,136,95,74,0,0,0,0,0,0,2,217,1,153,0,219,0,154,0,0,0,0,0,0,0,0,84,45,90,58,51,68,129,90,0,88,73,0,218,1,0,153,20,0,130,89,0,89,72,0,219,0,0,154,19,1,219,0,0,154,19,1,219,0,0,154,19,1,83,134,2,57,100,2,217,2,0,152,21,1,217,2,0,152,21,0,0,217,2,0,153,1,0,217,2,0,153,1,173,44,2,125,49,2,217,2,0,152,20,2,104,48,67,84,41,47
2017-06-27T23:59:59Z,153,217,198,138,217,153,195,136,93,72,0,0,0,0,0,0,2,215,1,152,0,215,0,152,0,0,0,0,0,0,0,0,86,45,86,60,51,66,131,86,0,90,70,1,216,1,0,152,20,1,130,87,0,89,71,1,217,0,0,153,19,1,217,0,0,153,19,1,217,0,0,153,19,1,83,132,2,57,99,2,215,2,0,151,21,1,215,2,0,151,21,1,0,215,2,0,152,2,0,215,2,0,152,2,171,44,2,124,49,2,216,1,0,152,20,1,105,47,65,85,39,47
2017-06-28T23:59:59Z,151,215,196,136,214,150,191,133,90,69,0,0,0,0,0,0,3,212,2,150,0,212,0,149,0,0,0,0,0,0,0,0,85,43,87,59,49,67,129,85,1,88,69,2,214,0,1,150,19,2,127,85,3,87,69,3,215,0,0,151,19,1,215,0,0,151,19,1,215,0,0,151,19,1,84,129,2,58,96,2,213,1,1,149,20,2,213,1,1,149,20,2,0,212,3,0,149,3,0,212,3,0,149,3,168,43,4,122,48,4,212,1,2,149,20,3,105,45,65,85,37,47
2017-06-29T23:59:59Z,153,218,199,138,218,153,195,136,88,68,0,0,0,0,0,0,3,215,2,152,0,218,0,153,0,0,0,0,0,0,0,0,85,45,88,60,51,66,129,88,1,89,71,1,216,1,1,152,20,1,128,89,1,88,72,1,218,0,0,153,19,0,216,2,0,153,20,0,218,0,0,153,19,0,82,134,2,56,100,1,212,6,0,149,23,0,213,5,0,149,23,0,0,216,2,0,152,1,0,216,2,0,152,1,172,44,2,124,49,1,214,4,0,151,21,0,106,47,65,86,39,46
2017-06-30T23:59:59Z,153,217,197,137,217,153,194,135,85,67,0,0,0,0,0,0,3,214,2,151,0,215,0,152,0,0,0,0,0,0,0,0,85,43,89,58,50,68,129,88,0,88,72,0,216,1,0,152,20,0,129,88,0,88,72,0,217,0,0,153,19,0,216,1,0,153,20,0,217,0,0,153,19,0,82,132,3,56,99,2,216,1,0,152,20,0,216,1,0,152,20,0,0,214,3,0,151,2,0,214,3,0,151,2,170,44,3,123,49,2,216,1,0,152,20,0,105,46,66,86,39,46
2017-07-01T23:59:59Z,152,217,198,137,216,151,195,135,91,69,0,0,0,0,0,0,2,215,1,151,0,217,0,152,0,0,0,0,0,0,0,0,87,43,87,61,50,65,130,87,0,90,70,0,216,1,0,151,20,0,127,90,0,87,72,0,217,0,0,152,19,0,217,0,0,152,19,0,217,0,0,152,19,0,79,136,2,55,100,1,213,4,0,148,23,0,213,4,0,148,23,0,0,215,2,0,151,1,0,215,2,0,151,1,169,46,2,122,50,1,215,2,0,150,21,0,103,46,68,85,38,47
2017-07-02T23:59:59Z,153,219,200,138,219,153,196,135,89,68,0,0,0,0,0,0,3,216,2,152,0,219,0,153,0,0,0,0,0,0,0,0,87,45,87,60,51,64,130,89,0,89,71,0,216,3,0,150,21,0,130,89,0,89,72,0,219,0,0,153,18,0,218,1,0,152,19,0,218,1,0,152,19,0,83,134,2,57,100,1,216,3,0,150,21,0,216,3,0,150,21,0,0,217,2,0,152,1,0,217,2,0,152,1,172,45,2,123,49,1,217,2,0,151,20,0,106,46,67,85,38,47
2017-07-03T23:59:59Z,155,224,202,138,223,154,198,135,94,71,0,0,0,0,0,0,6,218,4,152,0,222,0,154,0,0,0,0,0,0,0,0,90,42,92,61,48,68,136,88,0,92,70,0,224,0,0,155,18,0,136,88,0,92,70,0,224,0,0,155,18,0,223,1,0,155,19,0,224,0,0,155,18,0,86,133,5,58,98,3,222,2,0,153,20,0,222,2,0,153,20,0,0,219,5,0,152,3,0,219,5,0,152,3,175,44,5,124,48,3,223,1,0,154,19,0,111,46,67,87,39,47
2017-07-04T23:59:59Z,154,222,200,137,222,154,196,135,87,67,0,0,0,0,0,0,4,218,3,152,0,222,0,154,0,0,0,0,0,0,0,0,90,42,90,61,49,67,134,88,0,91,71,1,222,0,0,154,19,1,134,88,0,91,71,1,222,0,0,154,19,1,222,0,0,154,19,1,222,0,0,154,19,1,85,134,3,57,99,3,220,2,0,152,20,1,220,2,0,152,20,1,0,219,3,0,152,3,0,219,3,0,152,3,174,45,3,123,49,3,220,2,0,152,20,1,110,45,67,88,37,47
2017-07-05T23:59:59Z,153,221,200,137,221,153,197,135,87,67,0,0,0,0,0,0,2,219,1,152,0,221,0,153,0,0,0,0,0,0,0,0,88,46,87,60,52,65,134,87,0,91,71,0,220,1,0,152,20,0,134,87,0,91,71,0,221,0,0,153,19,0,220,1,0,153,20,0,221,0,0,153,19,0,84,135,2,56,100,1,218,3,0,150,21,0,218,3,0,150,21,0,0,219,2,0,152,1,0,219,2,0,152,1,171,48,2,121,52,1,219,2,0,151,20,0,111,45,65,88,37,46
2017-07-06T23:59:59Z,153,219,196,136,219,153,190,132,89,69,0,0,0,0,0,0,4,215,2,151,0,215,0,151,0,0,0,0,0,0,0,0,85,45,89,60,51,67,132,86,1,91,70,1,218,0,1,153,19,1,132,86,1,91,70,1,219,0,0,153,19,0,219,0,0,153,19,0,219,0,0,153,19,0,82,133,4,56,99,2,216,3,0,150,21,0,216,3,0,150,21,0,0,215,4,0,151,2,0,215,4,0,151,2,167,47,5,121,51,3,217,2,0,151,20,0,110,44,65,88,37,46
2017-07-07T23:59:59Z,153,219,196,136,219,153,193,134,87,68,0,0,0,0,0,0,5,214,3,151,0,217,0,152,0,0,0,0,0,0,0,0,87,45,87,61,52,65,134,85,0,92,69,0,219,0,0,153,20,0,132,87,0,90,71,0,219,0,0,153,20,0,219,0,0,153,20,0,219,0,0,153,20,0,81,134,4,55,100,2,217,2,0,151,21,0,217,2,0,151,21,0,0,215,4,0,151,2,0,215,4,0,151,2,168,47,4,121,52,2,217,2,0,151,21,0,110,44,65,89,36,46
2017-07-08T23:59:59Z,153,221,197,136,221,153,194,134,90,68,0,0,0,0,0,0,4,217,2,151,0,221,0,153,0,0,0,0,0,0,0,0,88,45,88,61,52,66,132,89,0,91,71,0,220,1,0,152,20,0,133,88,0,92,71,0,221,0,0,153,19,0,221,0,0,153,19,0,221,0,0,153,19,0,83,134,4,57,99,2,218,3,0,150,21,0,218,3,0,150,21,0,0,217,4,0,151,2,0,217,4,0,151,2,171,46,4,122,51,2,219,2,0,151,20,0,111,44,66,88,36,47
2017-07-09T23:59:59Z,155,226,204,139,226,155,201,137,90,69,0,0,0,0,0,0,3,223,2,154,0,224,0,154,0,0,0,0,0,0,0,0,91,46,89,62,53,66,134,92,0,91,73,0,224,2,0,153,21,0,133,93,0,90,74,0,226,0,0,155,19,0,225,1,0,154,20,0,225,1,0,154,20,0,83,141,2,55,103,1,223,3,0,152,21,0,223,3,0,152,21,0,0,224,2,0,154,1,0,224,2,0,154,1,175,49,2,123,53,1,223,3,0,152,21,0,113,45,68,88,37,48
2017-07-10T23:59:59Z,155,223,202,139,223,155,198,136,86,68,0,0,0,0,0,0,3,220,2,154,0,223,0,155,0,0,0,0,0,0,0,0,92,44,87,63,51,66,134,89,0,91,72,0,222,1,0,154,20,0,133,90,0,90,73,0,223,0,0,155,19,0,223,0,0,155,19,0,222,1,0,154,20,0,84,137,2,56,102,1,220,3,0,152,21,0,220,3,0,152,21,0,0,221,2,0,154,1,0,221,2,0,154,1,172,49,2,122,53,1,218,5,0,151,22,0,111,45,67,88,37,48
2017-07-11T23:59:59Z,154,222,201,138,222,154,197,136,93,72,0,0,0,0,0,0,2,220,1,153,0,222,0,154,0,0,0,0,0,0,0,0,91,43,88,62,50,66,134,88,0,91,71,0,222,0,0,154,19,0,132,90,0,89,73,0,222,0,0,154,19,0,222,0,0,154,19,0,222,0,0,154,19,0,83,137,2,55,102,1,220,2,0,152,20,0,220,2,0,152,20,0,0,220,2,0,153,1,0,220,2,0,153,1,173,47,2,123,51,1,218,4,0,151,21,0,110,45,67,87,38,48
2017-07-12T23:59:59Z,154,222,201,138,220,153,198,136,91,71,0,0,0,0,0,0,2,220,1,153,0,220,0,153,0,0,0,0,0,0,0,0,93,41,88,63,50,67,133,89,0,90,72,0,222,0,0,154,20,0,132,90,0,89,73,0,222,0,0,154,20,0,222,0,0,154,20,0,222,0,0,154,20,0,85,135,2,56,101,1,219,3,0,151,22,0,219,3,0,151,22,0,0,220,2,0,153,1,0,220,2,0,153,1,174,46,2,123,52,1,219,3,0,151,22,0,110,44,68,88,36,49
2017-07-13T23:59:59Z,158,228,205,141,228,158,202,139,91,72,0,0,0,0,0,0,4,224,2,156,0,224,0,156,0,0,0,0,0,0,0,0,88,45,95,60,53,71,134,94,0,90,76,0,228,0,0,158,21,0,135,93,0,91,75,0,228,0,0,158,21,0,228,0,0,158,21,0,228,0,0,158,21,0,84,140,4,56,104,2,226,2,0,156,22,0,226,2,0,156,22,0,0,224,4,0,156,2,0,224,4,0,156,2,177,47,4,126,53,2,226,2,0,156,22,0,113,45,70,90,37,50
2017-07-14T23:59:59Z,155,224,201,138,223,154,199,137,91,72,0,0,0,0,0,0,4,220,2,153,0,222,0,154,0,0,0,0,0,0,0,0,90,40,94,61,51,70,132,92,0,89,74,0,224,0,0,155,22,0,131,93,0,88,75,0,224,0,0,155,22,0,224,0,0,155,22,0,224,0,0,155,22,0,83,137,4,55,102,2,222,2,0,153,23,0,222,2,0,153,23,0,0,220,4,0,153,2,0,220,4,0,153,2,176,44,4,125,52,2,222,2,0,153,23,0,109,45,70,87,38,50
2017-07-15T23:59:59Z,158,230,210,143,229,157,206,140,95,74,0,0,0,0,0,0,2,228,1,157,0,228,0,157,0,0,0,0,0,0,0,0,94,45,91,63,53,69,137,93,0,91,75,0,229,1,0,157,22,0,136,94,0,90,76,0,230,0,0,158,21,0,229,1,0,157,22,0,229,1,0,157,22,0,88,140,2,57,104,1,227,3,0,155,23,0,227,3,0,155,23,0,0,228,2,0,157,1,0,228,2,0,157,1,181,47,2,127,53,1,227,3,0,155,23,0,115,47,68,90,38,49
2017-07-16T23:59:59Z,158,229,209,143,229,158,205,140,91,71,0,0,0,0,0,0,2,227,1,157,0,227,1,157,0,0,0,0,0,0,0,0,93,47,89,63,53,68,138,91,0,92,75,0,228,1,0,157,22,0,137,92,0,91,76,0,229,0,0,158,21,0,228,0,0,157,21,0,228,0,0,157,21,0,90,137,2,59,103,1,227,2,0,156,22,0,227,2,0,156,22,0,0,227,2,0,157,1,0,227,2,0,157,1,181,46,2,128,52,1,226,3,0,155,23,0,114,49,66,91,39,48
2017-07-17T23:59:59Z,157,227,210,144,227,157,207,142,94,73,0,0,0,0,0,0,0,227,0,157,0,225,0,156,0,0,0,0,0,0,0,0,92,45,90,62,53,69,133,94,0,89,76,0,227,0,0,157,21,0,133,94,0,89,76,0,227,0,0,157,21,0,226,0,0,156,21,0,227,0,0,157,21,0,88,139,0,58,103,0,224,3,0,154,23,0,224,3,0,154,23,0,0,227,0,0,157,0,0,227,0,0,157,0,182,45,0,129,51,0,224,2,1,154,22,1,110,49,68,88,39,49
2017-07-18T23:59:59Z,158,229,212,145,229,158,208,142,89,70,0,0,0,0,0,0,1,228,1,158,0,229,0,158,0,0,0,0,0,0,0,0,94,46,89,63,54,67,136,93,0,91,75,0,227,2,0,156,23,0,136,93,0,91,75,0,229,0,0,158,21,0,228,0,0,157,21,0,228,0,1,158,21,1,91,138,0,60,102,0,225,4,0,154,24,0,225,4,0,154,24,0,0,229,0,0,158,0,0,229,0,0,158,0,183,46,0,129,52,0,226,3,0,155,23,0,112,50,67,89,40,48
2017-07-19T23:59:59Z,155,223,202,140,222,154,199,138,89,69,0,0,0,0,0,0,4,219,2,153,0,223,0,155,0,0,0,0,0,0,0,0,91,44,88,62,50,67,135,88,0,90,72,0,222,1,0,154,20,0,136,87,0,91,71,0,223,0,0,155,19,0,222,0,0,154,19,0,223,0,0,155,19,0,88,131,4,59,98,2,220,3,0,152,21,0,220,3,0,152,21,0,0,219,4,0,153,2,0,219,4,0,153,2,175,44,4,125,48,2,221,2,0,153,20,0,112,49,62,88,39,45
2017-07-20T23:59:59Z,158,228,207,143,228,158,204,141,87,69,0,0,0,0,0,0,4,224,2,156,0,226,0,157,0,0,0,0,0,0,0,0,94,44,90,63,50,68,139,89,0,92,73,0,227,1,0,157,20,0,140,88,0,93,73,0,228,0,0,158,19,0,226,1,0,156,20,0,227,1,0,157,20,0,93,131,4,62,99,2,224,4,0,154,22,0,224,4,0,154,22,0,0,224,4,0,156,2,0,224,4,0,156,2,179,45,4,127,49,2,223,5,0,154,22,0,115,51,62,89,41,45
2017-07-21T23:59:59Z,154,222,203,140,222,154,200,138,88,69,0,0,0,0,0,0,0,222,0,154,0,222,0,154,0,0,0,0,0,0,0,0,92,46,84,62,50,65,134,88,0,89,71,0,221,1,0,153,19,0,134,88,0,89,71,0,222,0,0,154,18,0,220,1,0,152,19,0,221,1,0,153,19,0,90,132,0,59,98,0,219,3,0,151,20,0,219,3,0,151,20,0,0,222,0,0,154,0,0,222,0,0,154,0,178,44,0,126,47,0,219,3,0,151,20,0,109,51,62,85,41,45
2017-07-22T23:59:59Z,156,224,202,140,223,156,199,138,91,72,0,0,0,0,0,0,3,221,2,155,0,222,0,155,0,0,0,0,0,0,0,0,89,47,88,60,51,67,135,89,0,90,72,0,223,1,0,155,19,0,136,88,0,91,71,0,224,0,0,156,18,0,223,0,0,155,18,0,224,0,0,156,18,0,89,132,3,59,99,2,222,1,1,154,19,1,222,1,1,154,19,1,0,221,3,0,155,2,0,221,3,0,155,2,177,44,3,126,48,2,222,1,1,154,19,1,109,53,62,85,43,45
2017-07-23T23:59:59Z,160,229,206,143,228,160,203,141,93,73,0,0,0,0,0,0,2,227,1,159,0,227,0,159,0,0,0,0,0,0,0,0,93,46,90,63,51,69,137,92,0,92,74,0,228,1,0,159,19,0,137,92,0,92,74,0,229,0,0,160,18,0,228,0,0,159,18,0,228,1,0,159,19,0,91,135,3,60,102,2,226,2,1,157,20,1,226,2,1,157,20,1,0,226,3,0,159,2,0,226,3,0,159,2,183,43,3,130,48,2,227,1,1,158,19,1,111,54,64,87,44,46
2017-07-24T23:59:59Z,162,234,211,145,234,162,208,143,98,75,0,0,0,0,0,0,2,232,1,161,0,232,0,161,0,0,0,0,0,0,0,0,95,48,91,64,52,69,140,94,0,93,76,0,232,2,0,160,21,0,140,94,0,93,76,0,234,0,0,162,19,0,233,0,0,162,19,0,234,0,0,162,19,0,92,140,2,60,105,1,222,12,0,154,29,0,230,4,0,158,22,0,0,232,2,0,161,1,0,232,2,0,161,1,175,57,2,122,59,1,229,5,0,158,22,0,113,54,67,88,45,48
2017-07-25T23:59:59Z,158,226,203,141,225,157,200,139,97,75,0,0,0,0,0,0,4,222,2,157,0,226,0,158,0,0,0,0,0,0,0,0,88,47,91,61,52,69,135,91,0,91,75,0,226,0,0,158,20,0,136,90,0,92,74,0,226,0,0,158,20,0,225,1,0,157,21,0,225,1,0,157,21,0,87,136,3,59,103,1,223,3,0,155,22,0,223,3,0,155,22,0,0,223,3,0,157,1,0,223,3,0,157,1,177,46,3,127,51,1,224,2,0,156,21,0,110,51,65,87,42,47
2017-07-26T23:59:59Z,159,226,202,141,226,159,199,139,89,71,0,0,0,0,0,0,4,222,2,157,0,226,0,159,0,0,0,0,0,0,0,0,91,45,90,62,51,69,138,88,0,93,74,0,226,0,0,159,20,0,137,89,0,92,75,0,226,0,0,159,20,0,226,0,0,159,20,0,226,0,0,159,20,0,87,135,4,58,104,2,224,2,0,157,21,0,224,2,0,157,21,0,0,222,4,0,157,2,0,222,4,0,157,2,175,47,4,126,52,2,224,2,0,157,21,0,110,52,64,87,43,47
2017-07-27T23:59:59Z,160,227,203,142,227,160,200,140,87,69,0,0,0,0,0,0,4,221,2,157,0,223,0,158,0,0,0,0,0,0,0,0,91,45,91,63,51,69,137,90,0,93,75,0,227,0,0,160,20,0,137,90,0,93,76,0,227,0,0,160,20,0,227,0,0,160,20,0,227,0,0,160,20,0,87,136,4,59,105,2,225,2,0,158,21,0,225,2,0,158,21,0,0,223,4,0,158,2,0,223,4,0,158,2,174,47,4,126,52,2,223,2,0,157,21,0,109,52,66,87,42,48
2017-07-28T23:59:59Z,159,224,202,142,224,159,199,140,90,72,0,0,0,0,0,0,3,221,2,158,0,222,0,158,0,0,0,0,0,0,0,0,88,47,89,61,52,69,135,89,0,92,75,0,224,0,0,159,20,0,135,89,0,92,75,0,224,0,0,159,20,0,224,0,0,159,20,0,224,0,0,159,20,0,87,135,2,59,104,1,222,2,0,157,21,0,222,2,0,157,21,0,0,222,2,0,158,1,0,222,2,0,158,1,175,47,2,127,52,1,220,4,0,156,22,0,107,53,64,86,43,47
2017-07-29T23:59:59Z,159,225,204,143,225,159,201,141,91,72,0,0,0,0,0,0,2,223,1,158,0,225,0,159,0,0,0,0,0,0,0,0,91,44,90,63,51,70,135,90,0,93,75,1,225,0,0,159,20,1,135,90,0,93,75,1,225,0,0,159,20,1,225,0,0,159,20,1,225,0,0,159,20,1,89,134,2,61,102,2,222,3,0,156,22,1,222,3,0,156,22,1,0,223,2,0,158,2,0,223,2,0,158,2,179,44,2,130,50,1,223,2,0,157,21,0,109,50,66,88,41,48
2017-07-30T23:59:59Z,160,227,206,144,227,160,203,142,95,76,0,0,0,0,0,0,3,224,2,159,0,223,0,158,0,0,0,0,0,0,0,0,90,46,91,62,52,70,135,92,0,92,77,0,225,2,0,158,22,0,134,93,0,91,78,0,227,0,0,160,20,0,227,0,0,160,20,0,227,0,0,160,20,0,88,137,2,59,105,1,224,3,0,157,22,0,224,3,0,157,22,0,0,225,2,0,159,1,0,225,2,0,159,1,180,45,2,130,51,1,225,2,0,158,21,0,109,52,66,87,43,48
2017-07-31T23:59:59Z,159,228,207,143,228,159,201,140,92,73,0,0,0,0,0,0,2,226,1,158,0,226,0,158,0,0,0,0,0,0,0,0,96,41,91,65,49,70,137,91,0,92,76,0,228,0,0,159,21,0,137,91,0,92,76,0,228,0,0,159,21,0,228,0,0,159,21,0,228,0,0,159,21,0,93,133,2,62,101,1,227,1,0,158,21,0,227,1,0,158,21,0,0,226,2,0,158,1,0,226,2,0,158,1,184,42,2,132,49,1,227,1,0,158,21,0,111,50,67,87,42,49
2017-08-01T23:59:59Z,160,231,208,143,229,160,203,141,94,73,0,0,0,0,0,0,4,227,2,158,0,231,0,160,0,0,0,0,0,0,0,0,96,40,95,65,49,72,137,94,0,92,78,0,231,0,0,160,21,0,136,95,0,91,79,0,231,0,0,160,21,0,231,0,0,160,21,0,231,0,0,160,21,0,92,135,4,61,102,2,228,3,0,157,23,0,228,3,0,157,23,0,0,227,4,0,158,2,0,227,4,0,158,2,184,43,4,131,51,2,229,2,0,158,22,0,112,52,67,88,44,49
2017-08-02T23:59:59Z,161,232,209,144,232,161,205,142,88,70,0,0,0,0,0,0,5,227,3,159,0,228,0,159,0,0,0,0,0,0,0,0,94,45,93,63,52,71,140,92,0,93,77,0,231,1,0,160,22,0,141,91,0,94,76,0,232,0,0,161,21,0,231,1,0,160,22,0,231,1,0,160,22,0,92,136,4,61,103,2,230,2,0,159,22,0,230,2,0,159,22,0,0,228,4,0,159,2,0,228,4,0,159,2,183,45,4,131,51,2,231,1,0,160,21,0,114,53,65,89,43,47
2017-08-03T23:59:59Z,158,226,208,143,226,158,205,141,90,71,0,0,0,0,0,0,2,224,1,157,0,226,0,158,0,0,0,0,0,0,0,0,93,44,89,63,51,68,136,90,0,91,75,0,225,1,0,157,22,0,137,89,0,92,74,0,226,0,0,158,21,0,225,1,0,157,22,0,225,1,0,157,22,0,93,131,2,62,100,1,224,2,0,156,22,0,224,2,0,156,22,0,0,224,2,0,157,1,0,224,2,0,157,1,182,42,2,130,49,1,225,1,0,157,21,0,109,53,64,86,43,46
2017-08-04T23:59:59Z,158,226,210,144,226,158,207,142,93,73,0,0,0,0,0,0,2,224,1,157,0,224,0,157,0,0,0,0,0,0,0,0,97,43,86,67,50,67,136,90,0,92,76,0,226,0,0,158,21,0,135,91,0,91,76,0,226,0,0,158,21,0,226,0,0,158,21,0,226,0,0,158,21,0,94,132,0,63,101,0,224,2,0,156,22,0,224,2,0,156,22,0,0,226,0,0,158,0,0,226,0,0,158,0,183,43,0,130,50,0,225,1,0,157,21,0,109,53,64,87,44,46
2017-08-05T23:59:59Z,157,224,208,143,222,156,204,141,92,73,0,0,0,0,0,0,2,222,1,156,0,224,0,157,0,0,0,0,0,0,0,0,94,44,86,64,51,66,134,90,0,90,75,0,223,1,0,156,22,0,134,90,0,90,75,0,224,0,0,157,21,0,223,1,0,156,22,0,223,1,0,156,22,0,94,130,0,62,100,0,222,2,0,155,22,0,221,2,1,155,22,1,0,223,1,0,157,1,0,223,1,0,157,1,184,40,0,131,48,0,223,1,0,156,21,0,107,54,63,85,44,45
2017-08-06T23:59:58Z,160,230,212,145,230,160,209,143,89,70,0,0,0,0,0,0,4,226,2,158,0,230,0,160,0,0,0,0,0,0,0,0,98,44,88,66,51,67,141,89,0,94,74,0,230,0,0,160,21,0,140,90,0,93,75,0,230,0,0,160,21,0,230,0,0,160,21,0,230,0,0,160,21,0,95,133,2,62,102,1,228,2,0,158,22,0,228,2,0,158,22,0,0,228,2,0,159,1,0,228,2,0,159,1,185,43,2,131,50,1,228,2,0,158,22,0,114,53,63,89,43,45
2017-08-07T23:59:59Z,162,232,214,147,231,161,211,145,90,72,0,0,0,0,0,0,4,228,2,160,0,228,0,160,0,0,0,0,0,0,0,0,96,47,89,65,53,68,141,91,0,94,76,0,231,1,0,161,22,0,142,90,0,95,75,0,232,0,0,162,21,0,231,1,0,161,22,0,231,1,0,161,22,0,97,133,2,64,102,1,228,4,0,158,24,0,228,4,0,158,24,0,0,230,2,0,161,1,0,230,2,0,161,1,185,45,2,131,52,1,229,3,0,159,23,0,115,54,63,91,44,45
2017-08-08T23:59:59Z,160,231,211,144,231,160,208,142,90,71,0,0,0,0,0,0,6,225,3,157,0,231,0,160,0,0,0,0,0,0,0,0,96,47,88,65,52,67,144,87,0,95,73,0,231,0,0,160,21,0,144,87,0,95,73,0,231,0,0,160,21,0,231,0,0,160,21,0,231,0,0,160,21,0,96,131,4,63,100,2,229,2,0,158,22,0,229,2,0,158,22,0,0,227,4,0,158,2,0,227,4,0,158,2,183,44,4,130,50,2,229,2,0,158,22,0,117,53,61,90,43,44
2017-08-09T23:59:59Z,164,235,212,147,233,164,208,144,92,73,0,0,0,0,0,0,6,226,3,161,0,235,0,164,0,0,0,0,0,0,0,0,98,44,90,66,53,69,142,91,0,94,77,0,232,1,0,162,24,0,142,91,0,94,77,0,235,0,0,164,23,0,234,1,0,163,24,0,235,0,0,164,23,0,96,135,4,63,103,2,231,4,0,160,26,0,231,4,0,160,26,0,0,231,4,0,162,2,0,231,4,0,162,2,186,43,4,133,52,2,228,5,0,158,27,0,115,56,62,91,46,45
2017-08-10T23:59:59Z,163,237,216,147,235,163,211,143,93,73,0,0,0,0,0,0,4,230,2,161,0,237,0,163,0,0,0,0,0,0,0,0,95,48,91,63,54,69,143,92,0,94,76,0,235,0,0,162,22,0,143,92,0,94,76,0,237,0,0,163,22,0,237,0,0,163,22,0,237,0,0,163,22,0,96,139,2,62,104,1,235,2,0,161,23,0,235,2,0,161,23,0,0,235,2,0,162,1,0,235,2,0,162,1,187,46,2,131,53,1,230,5,0,159,25,0,115,57,63,90,46,45
2017-08-11T23:59:59Z,162,233,212,146,231,162,209,143,94,74,0,0,0,0,0,0,4,226,2,160,0,230,0,160,0,0,0,0,0,0,0,0,94,47,89,63,54,68,140,91,0,93,76,0,230,1,0,160,23,0,141,90,0,94,75,0,233,0,0,162,22,0,233,0,0,162,22,0,233,0,0,162,22,0,96,135,2,63,102,1,230,3,0,159,24,0,230,3,0,159,24,0,0,231,2,0,161,1,0,231,2,0,161,1,186,43,2,132,51,1,227,3,1,158,24,1,111,57,63,88,48,45
2017-08-12T23:59:59Z,160,231,210,144,228,159,208,142,89,71,0,0,0,0,0,0,4,224,2,158,0,229,0,159,0,0,0,0,0,0,0,0,93,47,88,62,53,68,140,89,0,92,75,0,229,0,0,159,22,0,139,90,0,91,76,0,231,0,0,160,22,0,231,0,0,160,22,0,231,0,0,160,22,0,93,136,2,60,103,1,228,3,0,157,24,0,228,3,0,157,24,0,0,229,2,0,159,1,0,229,2,0,159,1,183,44,2,130,51,1,227,2,0,157,23,0,112,56,61,88,46,44
2017-08-13T23:59:59Z,164,237,213,146,234,163,211,144,92,73,0,0,0,0,0,0,6,228,3,161,0,235,0,163,0,0,0,0,0,0,0,0,96,47,91,64,54,70,144,91,0,95,77,1,235,0,0,163,23,1,145,90,0,96,76,1,237,0,0,164,23,1,237,0,0,164,23,1,237,0,0,164,23,1,95,138,4,62,104,3,235,2,0,162,24,1,235,2,0,162,24,1,0,233,4,0,162,3,0,233,4,0,162,3,184,47,4,130,54,3,233,2,0,161,24,1,116,56,63,92,45,45
2017-08-14T23:59:59Z,168,241,214,149,239,168,211,146,93,75,0,0,0,0,0,0,7,231,4,165,0,241,0,168,0,0,0,0,0,0,0,0,99,49,90,66,57,70,150,89,0,100,77,1,238,1,0,166,24,1,150,89,0,100,77,1,241,0,0,168,23,1,240,1,0,167,24,1,240,1,0,167,24,1,99,138,4,65,106,3,238,3,0,165,25,1,237,3,1,164,25,2,0,237,4,0,166,3,0,237,4,0,166,3,187,48,4,134,56,3,237,2,0,165,24,1,120,57,62,94,47,45
2017-08-15T23:59:59Z,167,241,214,148,238,167,211,145,95,76,0,0,0,0,0,0,7,231,4,164,0,241,0,167,0,0,0,0,0,0,0,0,97,50,90,64,58,71,149,90,0,99,78,1,239,0,0,166,24,1,149,90,0,99,78,1,241,0,0,167,24,1,241,0,0,167,24,1,241,0,0,167,24,1,96,141,4,62,108,3,239,2,0,165,25,1,238,2,1,164,25,2,0,237,4,0,165,3,0,237,4,0,165,3,186,49,4,132,57,3,237,2,0,164,24,1,119,58,62,93,47,45
2017-08-16T23:59:59Z,165,235,213,148,233,164,210,146,92,75,0,0,0,0,0,0,2,231,1,163,0,235,0,165,0,0,0,0,0,0,0,0,100,50,83,67,58,68,148,85,0,100,74,1,233,0,0,164,24,1,146,87,0,98,76,1,235,0,0,165,24,1,235,0,0,165,24,1,235,0,0,165,24,1,98,137,0,64,106,1,233,2,0,163,25,1,233,2,0,163,25,1,0,235,0,0,165,1,0,235,0,0,165,1,184,49,0,132,57,1,231,2,0,162,24,1,117,55,61,93,44,45
2017-08-17T23:59:59Z,168,241,216,149,238,166,212,146,91,74,0,0,0,0,0,0,5,234,3,165,0,241,0,168,0,0,0,0,0,0,0,0,100,54,85,66,60,68,151,88,0,100,76,1,236,3,0,164,25,1,151,88,0,100,76,1,241,0,0,168,23,1,240,1,0,167,23,1,240,1,0,167,23,1,100,139,2,65,108,2,236,5,0,163,26,1,236,5,0,163,26,1,0,239,2,0,167,2,0,239,2,0,167,2,186,51,2,133,57,2,235,4,0,163,25,1,122,55,62,94,44,46